[[{"header":{"parameterUnit":"m.s-1","parameterCategory":1,"la1":30.2991,"la2":30.254,"lo1":-89.0895,"lo2":-89.0444,"dy":0.0017,"dx":0.0017,"nx":28,"ny":28,"refTime":"2024-09-03T03:00:00:Z","depth":0,"parameterNumber":2,"parameterNumberName":"U-component_of_WINDS"},"data":[0,0,0,0,0,0,0,0,0,0,0,0,0,0,0,0,0,0,0,0,0,0,0,0,0,0,0,0,0,0,0,0,0,0,0,0,0,0,0,0,0,0,0,0,0,0,0,0,0,0,0,0,0,0,0,0,0,0,-5.873,-5.8731,0,-5.883,-5.8831,-5.8832,-5.874,-5.8736,-5.8733,-5.8729,-5.8824,-5.883,-5.8836,0,0,0,0,0,0,0,0,0,0,0,0,0,-5.8454,-5.846,-5.873,-5.8731,-5.8733,-5.883,-5.8831,-5.8832,-5.8741,-5.8736,-5.8732,-5.8727,-5.8822,-5.8829,-5.8837,0,0,0,0,0,0,0,0,0,0,0,0,0,-5.8566,-5.8462,-5.873,-5.8699,-5.8697,-5.8829,-5.8831,-5.8833,-5.8742,-5.8736,-5.873,-5.8725,-5.882,-5.8829,-5.8838,-5.9004,0,0,-5.8865,-5.8869,0,0,0,0,0,0,0,0,-5.856,-5.8576,-5.8702,-5.8701,-5.8699,-5.8767,-5.8768,-5.889,-5.8743,-5.8724,-5.8729,-5.8723,-5.8809,-5.8819,-5.8849,-5.9008,-5.9012,-5.8866,-5.8871,-5.8875,-5.8878,0,0,0,0,0,0,0,-5.8552,-5.8571,-5.8769,-5.8704,-5.8702,-5.8678,-5.8687,-5.8791,-5.8796,-5.8726,-5.8719,-5.8733,-5.8807,-5.8841,-5.8851,-5.9014,-5.8866,-5.8874,-5.8879,-5.8883,-5.9312,-5.9317,0,0,0,0,0,0,-5.8549,-5.8565,-5.8766,-5.8772,-5.8615,-5.8687,-5.8698,-5.8751,-5.8795,-5.8797,-5.8737,-5.8728,-5.8828,-5.8841,-5.8854,-5.9049,-5.8875,-5.8883,-5.8889,-5.9306,-5.9313,-5.9319,0,0,0,0,0,0,-5.8543,-5.8567,-5.8762,-5.8667,-5.869,-5.8698,-5.8758,-5.8756,-5.8789,-5.8804,-5.8804,-5.8771,-5.8825,-5.8841,-5.8967,-5.9051,-5.8887,-5.8896,-5.9299,-5.9308,-5.9316,-5.9441,0,0,0,0,0,0,-5.8536,-5.8566,-5.863,-5.8669,-5.8696,-5.8876,-5.8763,-5.8761,-5.8805,-5.8794,-5.8835,-5.8837,-5.8821,-5.8954,-5.8976,-5.906,-5.8903,-5.9291,-5.9303,-5.9313,-5.943,-5.9454,-5.9474,0,0,0,0,0,-5.8526,-5.866,-5.8634,-5.8659,-5.8777,-5.8881,-5.8895,-5.8877,-5.8813,-5.8876,-5.8886,-5.8836,-5.904,-5.8968,-5.8992,-5.908,-5.9285,-5.9299,-5.9312,-5.942,-5.9449,-5.9474,0,0,0,0,0,0,-5.8628,-5.8665,-5.8636,-5.8788,-5.8832,-5.8865,-5.8944,-5.8908,-5.897,-5.8956,-5.8929,-5.8939,-5.9072,-5.9089,-5.9009,-5.9242,-5.9152,-5.9171,-5.9225,-5.9253,-5.9275,-5.9266,-5.891,0,0,0,0,0,-5.8669,-5.8752,-5.8779,-5.891,-5.8935,-5.8937,-5.8981,-5.8963,-5.9007,-5.9024,-5.9043,-5.9086,-5.9159,-5.9208,-5.9276,-5.9434,-5.9439,-5.9506,-5.9528,-5.9546,-5.9561,-5.9643,-5.9672,-5.9364,-5.9364,-5.9364,0,0,-5.8752,-5.8783,-5.8837,-5.8932,-5.8964,-5.9048,-5.8952,-5.9046,-5.9108,-5.9038,-5.9157,-5.9174,-5.9219,-5.9361,-5.9424,-5.9379,-5.9649,-5.9564,-5.9578,-5.9583,-5.966,-5.969,-5.9716,-5.9373,-5.9371,-5.937,0,0,-5.8947,-5.8981,-5.9092,-5.9127,-5.9179,-5.9179,-5.9207,-5.9246,-5.9254,-5.9375,-5.9324,-5.9396,-5.9524,-5.9558,-5.9592,-5.9803,-5.9758,-5.9827,-5.994,-6.0021,-6.0045,-6.0066,-6.0138,-6.0164,-5.9843,-5.9843,-5.9843,0,-5.9043,-5.9171,-5.9154,-5.9252,-5.9293,-5.9238,-5.9349,-5.9384,-5.9454,-5.9483,-5.9433,-5.9592,-5.9619,-5.9767,-5.9819,-5.985,-5.9877,-5.9819,-6.0043,-6.0064,-6.0084,-6.0152,-6.0179,-5.9851,-5.985,-5.9849,-5.9848,0,-5.9285,-5.9375,-5.9459,-5.953,-5.9582,-5.9687,-5.9683,-5.9738,-5.9717,-5.9722,-5.9845,-5.9876,-5.9949,-5.9984,-5.9964,-6.013,-6.01,-6.0048,-5.9955,-6.0121,-6.0184,-6.0211,-5.9862,-5.9859,-5.9857,-5.9855,0,0,-5.9542,-5.9605,-5.9636,-5.9667,-5.9721,-5.9788,-5.989,-5.9964,-6.001,-6.0062,-6.0143,-6.0255,-6.0207,-6.0246,-6.0229,-6.0301,-6.0462,-6.0239,-6.0239,-6.0276,-6.0643,-6.0678,-6.0709,-6.0435,-6.044,-6.0444,-6.0637,0,-5.9735,-5.9913,-5.9902,-6.0068,-6.0149,-6.0099,-6.0187,-6.0229,-6.0238,-6.0306,-6.0315,-6.0392,-6.0325,-6.0348,-6.0417,-6.0428,-6.0534,-6.0414,-6.0507,-6.051,-6.0492,-6.0742,-6.078,-6.0962,-6.0662,-6.0667,-6.067,0,-5.9984,-6.0046,-6.0221,-6.0263,-6.0296,-6.0376,-6.0442,-6.051,-6.0555,-6.0557,-6.0602,-6.0574,-6.0674,-6.0584,-6.072,-6.0639,-6.0677,-6.0688,-6.0695,-6.0698,-6.0596,-6.0749,-6.1019,-6.1045,-6.0709,-6.0706,-6.0703,0,-6.0148,-6.0276,-6.0397,-6.0426,-6.0479,-6.0535,-6.0559,-6.06,-6.0646,-6.0704,-6.0733,-6.0802,-6.0838,-6.0892,-6.0882,-6.0818,-6.102,-6.093,-6.1021,-6.1021,-6.1061,-6.1058,-6.1337,-6.1094,-6.1094,-6.1093,-6.1093,0,-6.0363,-6.0471,-6.0472,-6.0545,-6.0665,-6.0651,-6.0769,-6.0786,-6.0823,-6.0898,-6.086,-6.093,-6.0916,-6.0986,-6.098,-6.1092,-6.111,-6.1111,-6.1107,-6.1112,-6.1111,-6.1133,-6.1118,-6.1101,-6.1099,-6.1098,-6.1096,0,-6.0564,-6.057,-6.0698,-6.0739,-6.0751,-6.0837,-6.087,-6.0939,-6.0947,-6.1042,-6.1063,-6.1074,-6.1154,-6.1152,-6.1243,-6.1239,-6.1375,-6.1359,-6.136,-6.1355,-6.1445,-6.1435,-6.1743,-6.1782,-6.1518,-6.1521,-6.1523,0,-6.0698,-6.078,-6.0831,-6.0879,-6.0908,-6.0987,-6.1033,-6.1024,-6.1073,-6.1133,-6.1194,-6.1272,-6.1333,-6.1464,-6.1478,-6.1547,-6.1529,-6.1633,-6.1539,-6.1541,-6.1526,-6.1519,-6.1526,-6.1649,-6.1652,-6.1655,-6.1657,0,-6.0933,-6.0933,-6.1003,-6.1075,-6.1132,-6.1188,-6.1238,-6.128,-6.1275,-6.1333,-6.1416,-6.1464,-6.1559,-6.1635,-6.1702,-6.1724,-6.1689,-6.1688,-6.1711,-6.1714,-6.171,-6.1709,-6.1405,-6.1679,-6.1677,-6.1675,-6.1674,-6.1673,-6.1102,-6.1172,-6.1219,-6.1298,-6.1336,-6.1385,-6.1452,-6.1469,-6.1539,-6.1615,-6.1606,-6.1698,-6.1742,-6.1829,-6.1858,-6.1928,-6.1891,-6.1927,-6.1935,-6.1943,-6.1951,-6.1704,-6.1941,-6.194,-6.194,-6.1939,-6.1939,0,-6.1332,-6.136,-6.1434,-6.1507,-6.157,-6.1536,-6.1591,-6.1644,-6.1726,-6.1771,-6.1833,-6.1928,-6.2003,-6.2025,-6.2097,-6.2149,-6.2134,-6.2167,-6.2161,-6.2166,-6.1982,-6.1952,-6.2178,-6.2178,-6.2178,-6.2178,-6.2178,-6.2178,-6.1458,-6.1574,-6.158,-6.1714,-6.1742,-6.1833,-6.1867,-6.1911,-6.1947,-6.2056,-6.2119,-6.2134,-6.2169,-6.2244,-6.231,-6.2314,-6.234,-6.2379,-6.2377,-6.2203,-6.2179,-6.2156,-6.2128,-6.2386,-6.2387,-6.2554,-6.2556,-6.2557]},{"header":{"parameterUnit":"m.s-1","parameterCategory":1,"la1":30.2991,"la2":30.254,"lo1":-89.0895,"lo2":-89.0444,"dy":0.0017,"dx":0.0017,"nx":28,"ny":28,"refTime":"2024-09-03T03:00:00:Z","depth":0,"parameterNumber":3,"parameterNumberName":"V-component_of_WINDS"},"data":[0,0,0,0,0,0,0,0,0,0,0,0,0,0,0,0,0,0,0,0,0,0,0,0,0,0,0,0,0,0,0,0,0,0,0,0,0,0,0,0,0,0,0,0,0,0,0,0,0,0,0,0,0,0,0,0,0,0,1.0859,1.0858,0,1.0802,1.0802,1.0801,1.0737,1.0736,1.0735,1.0734,1.0672,1.0672,1.0671,0,0,0,0,0,0,0,0,0,0,0,0,0,1.0911,1.0911,1.0859,1.0858,1.0858,1.0802,1.0802,1.0801,1.0737,1.0736,1.0735,1.0734,1.0673,1.0672,1.0671,0,0,0,0,0,0,0,0,0,0,0,0,0,1.0875,1.0911,1.0859,1.0819,1.0815,1.0803,1.0802,1.0801,1.0737,1.0736,1.0735,1.0733,1.0673,1.0672,1.0671,1.0691,0,0,1.0667,1.0667,0,0,0,0,0,0,0,0,1.0877,1.0873,1.0826,1.0822,1.0817,1.0775,1.0797,1.0764,1.0738,1.0767,1.0734,1.0733,1.0708,1.0703,1.0696,1.0688,1.0686,1.0667,1.0666,1.0666,1.0665,0,0,0,0,0,0,0,1.088,1.0875,1.0836,1.0825,1.082,1.0804,1.0797,1.0791,1.0746,1.0764,1.0759,1.0754,1.0705,1.0697,1.0694,1.0685,1.0667,1.0666,1.0665,1.0665,1.0695,1.0696,0,0,0,0,0,0,1.0889,1.0878,1.0838,1.0835,1.0845,1.0804,1.0797,1.079,1.0746,1.0737,1.0755,1.0751,1.07,1.0695,1.0691,1.0714,1.0666,1.0665,1.0664,1.0693,1.0695,1.0697,0,0,0,0,0,0,1.089,1.0886,1.0841,1.0855,1.0848,1.0805,1.0798,1.079,1.0782,1.0739,1.073,1.0755,1.0698,1.0693,1.0693,1.0711,1.0664,1.0663,1.0691,1.0694,1.0696,1.0759,0,0,0,0,0,0,1.0892,1.0887,1.0894,1.0856,1.0848,1.0843,1.0799,1.079,1.078,1.0775,1.0737,1.0729,1.0697,1.0695,1.0692,1.0708,1.0662,1.069,1.0692,1.0695,1.0755,1.0763,1.077,0,0,0,0,0,1.0894,1.0912,1.0895,1.089,1.0856,1.0844,1.084,1.0803,1.0782,1.0789,1.0762,1.073,1.071,1.0695,1.0691,1.0708,1.0688,1.0692,1.0695,1.0751,1.0761,1.0769,0,0,0,0,0,0,1.0951,1.0906,1.0886,1.0893,1.0874,1.0834,1.0841,1.0815,1.0799,1.0794,1.0749,1.0741,1.0747,1.0727,1.0712,1.0727,1.0695,1.0697,1.0739,1.0748,1.0755,1.0759,1.0661,0,0,0,0,0,1.0966,1.0961,1.0921,1.0931,1.0923,1.0884,1.0878,1.0852,1.0829,1.082,1.0792,1.0771,1.076,1.0753,1.074,1.0753,1.0744,1.0762,1.077,1.0776,1.0778,1.0785,1.0793,1.0708,1.0708,1.0708,0,0,1.0993,1.0968,1.0967,1.0942,1.0924,1.092,1.0877,1.0874,1.087,1.0819,1.0817,1.0797,1.077,1.0777,1.0778,1.0761,1.0801,1.078,1.0786,1.0784,1.079,1.0798,1.0805,1.071,1.071,1.0709,0,0,1.1042,1.1022,1.1029,1.1013,1.0987,1.0962,1.0964,1.0929,1.0914,1.0913,1.0875,1.087,1.0851,1.0834,1.0823,1.0871,1.0841,1.0868,1.0906,1.0913,1.092,1.0926,1.0943,1.095,1.0871,1.0871,1.0871,0,1.1079,1.1071,1.1036,1.1036,1.1026,1.0983,1.099,1.0975,1.0946,1.094,1.0922,1.09,1.0879,1.0882,1.0894,1.0886,1.0887,1.087,1.0922,1.0928,1.0932,1.0948,1.0955,1.0874,1.0874,1.0873,1.0873,0,1.1119,1.1115,1.1124,1.1099,1.1091,1.1094,1.1059,1.1056,1.1032,1.1009,1.101,1.0983,1.0966,1.0965,1.094,1.0965,1.0956,1.0931,1.0897,1.0945,1.0959,1.0965,1.0879,1.0878,1.0877,1.0876,0,0,1.1198,1.1157,1.1161,1.115,1.112,1.1116,1.1119,1.1103,1.1101,1.1084,1.1085,1.1073,1.105,1.1038,1.1012,1.1019,1.1059,1.0993,1.0992,1.1006,1.1086,1.1105,1.1112,1.1041,1.1042,1.1043,1.1089,0,1.1241,1.1243,1.1213,1.1223,1.122,1.1181,1.1183,1.1166,1.1146,1.1139,1.1117,1.1109,1.108,1.1073,1.1078,1.1053,1.1075,1.105,1.1041,1.1041,1.1047,1.1119,1.1138,1.1182,1.1094,1.1095,1.1095,0,1.1289,1.1277,1.1288,1.1261,1.1258,1.1261,1.1246,1.1241,1.1221,1.1206,1.1195,1.1166,1.1167,1.1138,1.1139,1.1123,1.1118,1.1106,1.1107,1.1103,1.107,1.1117,1.1195,1.1202,1.1104,1.1103,1.1102,0,1.1346,1.1333,1.1338,1.133,1.1298,1.1301,1.1288,1.1266,1.126,1.1247,1.1243,1.123,1.1223,1.1214,1.1183,1.1164,1.1189,1.1156,1.1176,1.1177,1.1181,1.118,1.1259,1.118,1.118,1.118,1.118,0,1.1396,1.1404,1.1363,1.1366,1.1375,1.1341,1.1351,1.1334,1.1316,1.1315,1.1281,1.1281,1.1241,1.1237,1.1213,1.1219,1.1216,1.1204,1.1197,1.1206,1.1208,1.1201,1.1196,1.1181,1.1181,1.1181,1.118,0,1.1459,1.1432,1.1436,1.1407,1.14,1.1408,1.1383,1.1384,1.1364,1.1364,1.1362,1.133,1.1323,1.1293,1.1279,1.1263,1.1277,1.1264,1.1284,1.1279,1.1301,1.13,1.1377,1.1385,1.1302,1.1303,1.1304,0,1.1492,1.1498,1.1471,1.1469,1.1457,1.1454,1.1449,1.1417,1.1413,1.1393,1.1397,1.1389,1.138,1.1372,1.1347,1.1337,1.1324,1.1352,1.1321,1.1331,1.1324,1.1323,1.1324,1.1357,1.1358,1.1359,1.136,0,1.1553,1.154,1.1534,1.1525,1.152,1.151,1.1498,1.1498,1.1463,1.1461,1.1455,1.1449,1.1437,1.1429,1.1415,1.1401,1.1375,1.137,1.1374,1.1383,1.1394,1.1388,1.13,1.1368,1.1367,1.1366,1.1366,1.1366,1.1601,1.1606,1.1588,1.1583,1.1572,1.1563,1.1564,1.1545,1.154,1.1529,1.1511,1.1508,1.1491,1.147,1.1459,1.1457,1.1441,1.1447,1.1449,1.145,1.1455,1.1396,1.1454,1.1454,1.1454,1.1454,1.1453,0,1.166,1.1648,1.1644,1.163,1.1627,1.1606,1.1593,1.1591,1.159,1.1576,1.157,1.1565,1.1558,1.1535,1.1526,1.1529,1.1517,1.1527,1.1526,1.1524,1.1469,1.1466,1.1538,1.1538,1.1538,1.1538,1.1538,1.1538,1.169,1.1697,1.1683,1.1685,1.1672,1.167,1.1665,1.1657,1.1647,1.1643,1.1638,1.1624,1.1607,1.1597,1.1591,1.1584,1.1582,1.1597,1.1586,1.1535,1.1527,1.1519,1.1517,1.1597,1.1597,1.1641,1.1641,1.1641]}]]